DW1231 Weather Reports


Display with metric or nautical units.
time (UTC)temp
F
wind
direction
speed
MPH
gust
MPH
rain 1hr
in
rain 24hr
in
rain mn
in
humidity
%
barometer
mb
20260504190236 80 179 10.0 13.0 0.00 0.00 0.00 48 1013.8
20260504183417 80 357 6.0 11.0 0.00 0.00 0.00 47 1014.0
20260504182409 79 186 9.0 15.0 0.00 0.00 0.00 47 1014.1
20260504181418 78 115 10.0 13.0 0.00 0.00 0.00 47 1014.3
20260504180450 78 158 12.0 17.0 0.00 0.00 0.00 47 1014.5
20260504175418 78 111 14.0 22.0 0.00 0.00 0.00 47 1014.4
20260504174410 77 136 14.0 17.0 0.00 0.00 0.00 47 1014.8
20260504173418 77 149 11.0 14.0 0.00 0.00 0.00 47 1014.9
20260504172410 76 184 10.0 15.0 0.00 0.00 0.00 48 1015.1
20260504171437 77 204 12.0 18.0 0.00 0.00 0.00 48 1015.4
20260504170410 77 285 16.0 23.0 0.00 0.00 0.00 47 1015.5
20260504160410 74 41 7.0 13.0 0.00 0.00 0.00 51 1016.1
20260504150333 70 161 6.0 11.0 0.00 0.00 0.00 58 1016.5
20260504140333 68 94 3.0 7.0 0.00 0.00 0.00 64 1017.0
20260504130333 65 99 4.0 6.0 0.00 0.00 0.00 68 1017.0
20260504110306 63 179 2.0 3.0 0.00 0.00 0.00 68 1016.5
20260504100306 63 175 7.0 8.0 0.00 0.00 0.00 67 1017.0
20260504081315 66 137 6.0 8.0 0.00 0.00 0.00 55 1017.4
20260504080307 66 128 3.0 7.0 0.00 0.00 0.00 55 1017.2
20260504070306 66 154 3.0 3.0 0.00 0.00 0.00 55 1018.0
20260504060232 68 151 3.0 7.0 0.00 0.00 0.00 53 1018.8
20260504050132 68 122 3.0 3.0 0.00 0.00 0.00 53 1019.4
20260504045132 68 147 2.0 3.0 0.00 0.00 0.00 52 1019.4
20260504044132 68 125 2.0 3.0 0.00 0.00 0.00 52 1019.6
20260504043132 68 148 3.0 6.0 0.00 0.00 0.00 52 1019.4
20260504042132 68 120 1.0 2.0 0.00 0.00 0.00 51 1019.5
20260504041152 68 126 4.0 5.0 0.00 0.00 0.00 51 1019.7
20260504040132 68 150 3.0 3.0 0.00 0.00 0.00 51 1019.4
20260504035132 69 148 2.0 2.0 0.00 0.00 0.00 50 1019.4
20260504034132 69 157 1.0 2.0 0.00 0.00 0.00 50 1019.6
20260504033132 69 125 2.0 2.0 0.00 0.00 0.00 49 1019.5
20260504032133 69 132 2.0 3.0 0.00 0.00 0.00 49 1019.5
20260504031132 70 121 1.0 2.0 0.00 0.00 0.00 48 1019.3
20260504030132 70 159 3.0 3.0 0.00 0.00 0.00 47 1019.2
20260504025132 70 152 3.0 5.0 0.00 0.00 0.00 47 1019.2
20260504024132 71 184 5.0 6.0 0.00 0.00 0.00 46 1019.5
20260504023132 71 130 3.0 3.0 0.00 0.00 0.00 46 1019.4
20260504022132 71 168 1.0 6.0 0.00 0.00 0.00 46 1019.2
20260504021132 72 100 3.0 3.0 0.00 0.00 0.00 45 1019.1
20260504020132 72 148 5.0 7.0 0.00 0.00 0.00 44 1019.1
20260504015152 73 0.0 0.0 0.00 0.00 0.00 43 1019.2
20260504014132 73 139 3.0 5.0 0.00 0.00 0.00 42 1019.0
20260504013152 73 146 1.0 3.0 0.00 0.00 0.00 41 1019.1
20260504012252 74 171 3.0 5.0 0.00 0.00 0.00 41 1019.0
20260504011132 75 127 3.0 6.0 0.00 0.00 0.00 40 1019.0
20260504010132 75 167 5.0 7.0 0.00 0.00 0.00 39 1018.8
20260504005132 76 174 3.0 3.0 0.00 0.00 0.00 38 1018.9
20260504004132 77 118 5.0 6.0 0.00 0.00 0.00 37 1018.7
20260504003132 78 206 2.0 6.0 0.00 0.00 0.00 36 1018.8
20260504002147 78 166 2.0 2.0 0.00 0.00 0.00 37 1018.8
20260504001132 79 122 3.0 5.0 0.00 0.00 0.00 35 1018.8
20260504000152 80 202 7.0 10.0 0.00 0.00 0.00 34 1018.9
20260503235132 80 152 7.0 10.0 0.00 0.00 0.00 31 1018.9
20260503234134 80 147 3.0 5.0 0.00 0.00 0.00 32 1019.1
20260503233152 81 172 9.0 13.0 0.00 0.00 0.00 31 1019.1
20260503232132 81 117 3.0 3.0 0.00 0.00 0.00 33 1019.1
20260503231132 82 171 7.0 8.0 0.00 0.00 0.00 31 1019.2
20260503230132 81 194 6.0 10.0 0.00 0.00 0.00 31 1019.2
20260503225133 82 125 9.0 10.0 0.00 0.00 0.00 30 1019.2
20260503224132 82 135 3.0 5.0 0.00 0.00 0.00 31 1019.3
20260503223132 82 207 3.0 8.0 0.00 0.00 0.00 29 1019.5
20260503222132 82 170 5.0 11.0 0.00 0.00 0.00 30 1019.4
20260503221133 82 201 5.0 7.0 0.00 0.00 0.00 29 1019.7
20260503220133 82 206 7.0 9.0 0.00 0.00 0.00 29 1019.9
20260503215153 82 165 4.0 5.0 0.00 0.00 0.00 29 1019.7
20260503214132 83 199 5.0 9.0 0.00 0.00 0.00 29 1019.9
20260503213132 82 172 4.0 7.0 0.00 0.00 0.00 30 1020.0
20260503212132 82 104 10.0 13.0 0.00 0.00 0.00 30 1020.1
20260503211133 83 217 8.0 9.0 0.00 0.00 0.00 30 1020.4
20260503210132 83 195 7.0 9.0 0.00 0.00 0.00 30 1020.3
20260503205152 82 136 3.0 5.0 0.00 0.00 0.00 32 1020.4
20260503204132 82 213 8.0 9.0 0.00 0.00 0.00 32 1020.8
20260503203132 82 141 14.0 18.0 0.00 0.00 0.00 33 1021.0
20260503202132 83 189 5.0 8.0 0.00 0.00 0.00 33 1021.2
20260503201133 81 115 3.0 5.0 0.00 0.00 0.00 34 1021.4
20260503200133 82 193 20.0 24.0 0.00 0.00 0.00 32 1021.5
20260503195132 82 127 5.0 7.0 0.00 0.00 0.00 32 1021.8
20260503194153 80 214 9.0 10.0 0.00 0.00 0.00 31 1022.0
20260503193132 80 251 5.0 7.0 0.00 0.00 0.00 33 1022.0
20260503192133 82 133 3.0 5.0 0.00 0.00 0.00 33 1022.1
20260503191133 81 185 7.0 10.0 0.00 0.00 0.00 31 1022.3